SL-16 DEB, 20628

Orbit data source: Space-Track

SL-16 DEB, 20628 is space debris in LEO originally from a launch on Tue, 22 May 1990 UTC launched from the Tyuratam Missile And Space Complex (TTMTR). Debris objects in space refer to the collection of defunct objects orbiting the Earth. Examples of debris include non-operational satellites, rocket bodies, and fragments generated from explosions, collisions, or faulty payload assembly.

Loading next visibility...
Identifier
20628, 1990-046E
Orbit
LEO
Country
Flag of CISCIS
Related business
Manufacturer
Yuzhnoe
Mission
Spacecraft
Bus & Motor
SEP MOTOR COVER, Unknown motor
Mass
~0 kg wet, ~1 kg dry
Launch date (UTC)
1990-05-22 (35 years ago)
Launch vehicle
Unknown
Launch site
Tyuratam Missile And Space Complex (TTMTR)
Object type
Payload
Rocket body
Debris
Shape & HBR
Unknown
Radar Cross Section
Small (<0.1 m²)

Expand to show TLE details & history
Last TLE update: 14 hours ago

TLE from 14 hours ago
0 SL-16 DEB
1 20628U 90046E   25300.37055259  .00000104  00000-0  13758-3 0  9995
2 20628  70.9750 270.9685 0207648 186.5445 173.2938 13.72410302773536
Epoch: 2025-10-27T08:53Z
TLE epoch observation values (Epoch: 2025-10-27T08:53:35.743Z)
Latitude
-0.00002°
Longitude
101.5962°
Altitude
1,145.315 km
Speed
7.205 km/s
True Right ascension
18h 03m 52s
True Declination
0° 00' 00"
Sunlit
Object was in daylight at epoch
Visualization orbit readout
Latitude
Unknown
Longitude
Unknown
Altitude
Unknown
Speed
Unknown
Apparent Right ascension
Unknown
Apparent Declination
Unknown
Sunlit
N/A
Visualization observer readout
Local Sidereal Time
18:18:44
Azimuth
Unknown
Elevation
Unknown
Doppler factor
Unknown
Orbital elements
Apogee altitude
1,141.873 km
Perigee altitude
835.923 km
Semi-major axis
7,367.035 km
Eccentricity
0.02076
Inclination
70.975°
RAAN
270.9685°
Arg. of periapsis
186.5445°
True anomaly
173.56468°
Mean anomaly
173.2938°
Eccentric anomaly
173.42993°
Mean motion
3.43245 °/min
Orbital period
104.88 mins
BSTAR
0.00013758
Loading maneuver chart data...
Computing Atmospheric mass density...
Loading historical data...
Loading historical data...
Loading historical data...
Loading historical data...
Loading historical data...
Loading historical data...
Loading historical data...
Other satellites on launch #46 in the year 1990 (1990-05-22 UTC)

Documentation

Showing up to 5 results
|